[[{"header":{"parameterUnit":"m.s-1","parameterCategory":1,"la1":30.2992,"la2":30.254,"lo1":-89.0895,"lo2":-89.0443,"dy":0.0025,"dx":0.0025,"nx":19,"ny":19,"refTime":"2026-05-03T03:00:00:Z","depth":0,"parameterNumber":2,"parameterNumberName":"U-component_of_WINDS"},"data":[0,0,0,-0.0543,-0.0544,-0.0585,-0.0585,-0.0641,-0.0642,0,0,0,0,0,0,0,0,0,0,0,-0.0532,-0.0532,-0.0543,-0.0544,-0.0585,-0.0585,-0.0641,-0.0642,0,0,0,0,0,0,0,0,0,0,0,-0.0531,-0.0532,-0.0532,-0.0544,-0.0585,-0.0585,-0.0641,-0.0609,0,0,0,0,0,0,0,0,0,0,-0.0569,-0.0559,-0.0532,-0.0532,-0.0544,-0.0585,-0.0585,-0.0607,-0.0611,-0.0623,0,-0.0634,0,-0.0638,-0.0645,-0.0646,0,0,0,-0.0544,-0.0556,-0.0566,-0.0532,-0.0544,-0.0585,-0.0566,-0.0609,-0.0613,-0.0628,-0.0635,-0.0637,-0.0639,-0.0646,-0.0646,-0.0714,-0.0715,0,0,-0.0541,-0.054,-0.0563,-0.0568,-0.0561,-0.0565,-0.0567,-0.0612,-0.0619,-0.0635,-0.0638,-0.064,-0.0646,-0.0647,-0.0714,-0.0714,0,0,0,-0.0535,-0.0539,-0.0547,-0.0566,-0.0573,-0.0566,-0.0569,-0.0617,-0.062,-0.0638,-0.0641,-0.0646,-0.0647,-0.0714,-0.0714,-0.0728,0,0,0,-0.0533,-0.0535,-0.0546,-0.0546,-0.0572,-0.0595,-0.0574,-0.0617,-0.0622,-0.0641,-0.0646,-0.0648,-0.0713,-0.0714,-0.0727,-0.0736,0,0,0,-0.0529,-0.0534,-0.054,-0.0546,-0.0563,-0.0595,-0.06,-0.0618,-0.0623,-0.0646,-0.0648,-0.0713,-0.0714,-0.0726,-0.0734,-0.0753,0,0,0,-0.0524,-0.0554,-0.054,-0.0575,-0.0563,-0.0602,-0.06,-0.063,-0.0651,-0.0647,-0.0713,-0.0714,-0.0726,-0.0733,-0.0752,-0.0769,-0.0776,0,0,-0.0561,-0.0558,-0.0579,-0.0568,-0.0609,-0.0596,-0.064,-0.0662,-0.0666,-0.0698,-0.07,-0.0728,-0.0734,-0.0753,-0.0813,-0.0818,0,0,0,-0.059,-0.0605,-0.0616,-0.0634,-0.0649,-0.0663,-0.0677,-0.0685,-0.0712,-0.0682,-0.0739,-0.0743,-0.0754,-0.0763,-0.0767,-0.0777,-0.0718,-0.0718,-0.0718,-0.0644,-0.0645,-0.0678,-0.0684,-0.0702,-0.0714,-0.0729,-0.0741,-0.074,-0.0753,-0.0763,-0.0799,-0.0809,-0.0812,-0.0822,-0.0771,-0.0771,-0.0771,-0.0772,-0.0699,-0.072,-0.0714,-0.0744,-0.0745,-0.0771,-0.0784,-0.0781,-0.0806,-0.0792,-0.0802,-0.0788,-0.0818,-0.0827,-0.0773,-0.0772,-0.0772,-0.0772,-0.0772,-0.0736,-0.0746,-0.0752,-0.0777,-0.0796,-0.08,-0.0823,-0.0824,-0.0825,-0.0835,-0.0845,-0.0845,-0.0845,-0.0839,-0.0839,-0.084,-0.084,-0.084,-0.084,-0.0771,-0.0777,-0.0796,-0.0812,-0.0822,-0.0837,-0.0847,-0.0858,-0.0871,-0.0869,-0.0869,-0.0866,-0.082,-0.0809,-0.0842,-0.0842,-0.0841,-0.0841,-0.0841,-0.0829,-0.0815,-0.0844,-0.0854,-0.0872,-0.089,-0.0889,-0.0911,-0.092,-0.0931,-0.0924,-0.0889,-0.0888,-0.0884,-0.0875,-0.0924,-0.0924,-0.0924,-0.0924,-0.086,-0.0858,-0.0886,-0.0902,-0.0918,-0.0919,-0.0951,-0.0959,-0.0966,-0.0971,-0.0964,-0.0951,-0.0947,-0.0948,-0.0943,-0.0934,-0.0997,-0.0997,-0.0997,-0.0896,-0.0895,-0.0922,-0.0926,-0.0939,-0.0951,-0.0981,-0.1,-0.1005,-0.1,-0.0976,-0.0972,-0.0952,-0.0945,-0.0942,-0.0935,-0.0919,0,0]},{"header":{"parameterUnit":"m.s-1","parameterCategory":1,"la1":30.2992,"la2":30.254,"lo1":-89.0895,"lo2":-89.0443,"dy":0.0025,"dx":0.0025,"nx":19,"ny":19,"refTime":"2026-05-03T03:00:00:Z","depth":0,"parameterNumber":3,"parameterNumberName":"V-component_of_WINDS"},"data":[0,0,0,-7.1953,-7.1959,-7.22,-7.2201,-7.2528,-7.2531,0,0,0,0,0,0,0,0,0,0,0,-7.1895,-7.1898,-7.1953,-7.1959,-7.22,-7.2201,-7.2528,-7.2531,0,0,0,0,0,0,0,0,0,0,0,-7.1894,-7.1897,-7.1901,-7.196,-7.22,-7.2201,-7.2527,-7.2338,0,0,0,0,0,0,0,0,0,0,-7.21,-7.2061,-7.1897,-7.1901,-7.1962,-7.22,-7.2201,-7.2328,-7.235,-7.2428,0,-7.2503,0,-7.2523,-7.2555,-7.2556,0,0,0,-7.1949,-7.2043,-7.2096,-7.1901,-7.1964,-7.22,-7.2089,-7.234,-7.2364,-7.2456,-7.2507,-7.2519,-7.2528,-7.2557,-7.2559,-7.305,-7.3053,0,0,-7.1935,-7.1946,-7.2079,-7.2112,-7.2079,-7.2081,-7.2096,-7.2354,-7.241,-7.2508,-7.2526,-7.2533,-7.2559,-7.2562,-7.3048,-7.3051,0,0,0,-7.1904,-7.1937,-7.1983,-7.2099,-7.2142,-7.2088,-7.2106,-7.2398,-7.2413,-7.253,-7.2537,-7.2561,-7.2566,-7.3044,-7.3049,-7.3199,0,0,0,-7.1896,-7.1919,-7.1978,-7.1987,-7.2137,-7.2274,-7.2145,-7.2395,-7.2424,-7.2536,-7.2561,-7.2569,-7.3041,-7.3047,-7.3188,-7.3268,0,0,0,-7.1875,-7.1916,-7.1956,-7.1987,-7.2091,-7.2269,-7.2298,-7.2401,-7.2429,-7.2556,-7.257,-7.3039,-7.3046,-7.3179,-7.3252,-7.3401,0,0,0,-7.1855,-7.2085,-7.1959,-7.2218,-7.2089,-7.2361,-7.2296,-7.2497,-7.2624,-7.2563,-7.3042,-7.3048,-7.3176,-7.3243,-7.3391,-7.353,-7.3588,0,0,-7.2151,-7.2121,-7.2272,-7.2166,-7.2464,-7.2323,-7.2641,-7.2746,-7.2747,-7.2948,-7.296,-7.3192,-7.3251,-7.3399,-7.391,-7.3957,0,0,0,-7.237,-7.2479,-7.2555,-7.2678,-7.2764,-7.2845,-7.29,-7.2939,-7.311,-7.2854,-7.3285,-7.332,-7.3406,-7.3472,-7.3512,-7.3585,-7.3079,-7.3078,-7.3078,-7.2803,-7.2794,-7.3044,-7.3064,-7.3183,-7.3237,-7.3333,-7.3393,-7.3348,-7.345,-7.351,-7.3822,-7.3899,-7.3928,-7.4005,-7.3581,-7.3582,-7.3582,-7.3583,-7.3236,-7.3389,-7.3324,-7.3543,-7.3531,-7.3713,-7.3774,-7.3736,-7.3903,-7.3775,-7.3851,-7.3713,-7.398,-7.4046,-7.3594,-7.3592,-7.359,-7.3589,-7.3589,-7.352,-7.3592,-7.3636,-7.3811,-7.3947,-7.3958,-7.4122,-7.4104,-7.4088,-7.4162,-7.4224,-7.4222,-7.4217,-7.4193,-7.4194,-7.4195,-7.4196,-7.4197,-7.4197,-7.3798,-7.3842,-7.3984,-7.4096,-7.4172,-7.4269,-7.4326,-7.4399,-7.4476,-7.4449,-7.445,-7.4394,-7.4008,-7.3912,-7.4214,-7.4211,-7.4209,-7.4208,-7.4206,-7.4242,-7.4138,-7.4358,-7.4435,-7.4563,-7.4699,-7.4674,-7.4825,-7.4882,-7.4964,-7.4892,-7.4609,-7.4576,-7.4545,-7.4465,-7.4893,-7.4893,-7.4893,-7.4893,-7.4482,-7.4464,-7.4684,-7.4808,-7.4926,-7.4925,-7.5172,-7.5217,-7.5247,-7.5282,-7.5217,-7.5109,-7.5078,-7.5064,-7.5021,-7.4946,-7.5487,-7.5488,-7.5488,-7.4755,-7.4747,-7.4962,-7.4992,-7.5091,-7.5176,-7.5407,-7.5549,-7.5561,-7.5512,-7.5309,-7.5284,-7.5109,-7.5053,-7.5001,-7.4934,-7.4797,0,0]}]]